Location: Paddlesworth
(51.1000°N, 1.1333°E)
Time: 18:39:36
(UTC+00:00)

Gbstr 26 Del rocket - Pass Details

Date: 11 May 2021
Orbit: 493 x 1263 km, 51.8° (Epoch: 21 June)

Event Time Altitude Azimuth Distance (km) Brightness Sun altitude
Rises 20:20:25 0° 265° (W) 4,206 8.1 -6.8°
Reaches altitude 10° 20:23:22 10° 266° (W) 3,209 7.4 -7.2°
Maximum altitude 20:31:22 85° 356° (N) 1,151 4.4 -8.1°
Drops below altitude 10° 20:38:15 10° 85° (E) 2,785 6.0 -8.9°
Sets 20:40:40 0° 86° (E) 3,627 6.6 -9.2°
